Location: Mountain Grove
(34.0887°N, 86.6172°W)
Time: 14:56:24
(UTC+00:00)

Aureole 1 Rocket - Pass Details

Date: 14 July 2020
Orbit: 377 x 1380 km, 73.9° (Epoch: 12 August)

Event Time Altitude Azimuth Distance (km) Brightness Sun altitude
Exits shadow 07:33:52 53° 21° (NNE) 840 3.9 -29.3°
Drops below altitude 10° 07:38:08 10° 18° (NNE) 2,409 7.0 -28.9°
Sets 07:40:57 0° 18° (NNE) 3,527 8.1 -28.6°
